Time,TemperatureF,DewpointF,PressureIn,WindDirection,WindDirectionDegrees,WindSpeedMPH,WindSpeedGustMPH,Humidity,HourlyPrecipIn,Conditions,Clouds,dailyrainin,SoftwareType,DateUTC
2013-01-31 00:07:00,-999.0,-99.9,29.72,North,-999,-999.0,-999.0,-999,0.00,,,0.00,weatherlink.com 1.10,2013-01-31 05:07:00,
2013-01-31 00:22:00,-999.0,-99.9,29.73,North,-999,-999.0,-999.0,-999,0.00,,,0.00,weatherlink.com 1.10,2013-01-31 05:22:00,
2013-01-31 00:37:00,-999.0,-99.9,29.75,North,-999,-999.0,-999.0,-999,0.00,,,0.00,weatherlink.com 1.10,2013-01-31 05:37:00,
2013-01-31 00:53:00,-999.0,-99.9,29.76,North,-999,-999.0,-999.0,-999,0.00,,,0.00,weatherlink.com 1.10,2013-01-31 05:53:00,
2013-01-31 01:08:00,-999.0,-99.9,29.77,North,-999,-999.0,-999.0,-999,0.00,,,0.00,weatherlink.com 1.10,2013-01-31 06:08:00,
2013-01-31 01:23:00,-999.0,-99.9,29.78,North,-999,-999.0,-999.0,-999,0.00,,,0.00,weatherlink.com 1.10,2013-01-31 06:23:00,
2013-01-31 01:38:00,-999.0,-99.9,29.79,North,-999,-999.0,-999.0,-999,0.00,,,0.00,weatherlink.com 1.10,2013-01-31 06:38:00,
2013-01-31 01:53:00,-999.0,-99.9,29.80,North,-999,-999.0,-999.0,-999,0.00,,,0.00,weatherlink.com 1.10,2013-01-31 06:53:00,
2013-01-31 02:08:00,-999.0,-99.9,29.81,North,-999,-999.0,-999.0,-999,0.00,,,0.00,weatherlink.com 1.10,2013-01-31 07:08:00,
2013-01-31 02:23:00,-999.0,-99.9,29.82,North,-999,-999.0,-999.0,-999,0.00,,,0.00,weatherlink.com 1.10,2013-01-31 07:23:00,
2013-01-31 02:38:00,-999.0,-99.9,29.83,North,-999,-999.0,-999.0,-999,0.00,,,0.00,weatherlink.com 1.10,2013-01-31 07:38:00,
2013-01-31 02:53:00,-999.0,-99.9,29.83,North,-999,-999.0,-999.0,-999,0.00,,,0.00,weatherlink.com 1.10,2013-01-31 07:53:00,
2013-01-31 03:08:00,-999.0,-99.9,29.83,North,-999,-999.0,-999.0,-999,0.00,,,0.00,weatherlink.com 1.10,2013-01-31 08:08:00,
2013-01-31 03:23:00,-999.0,-99.9,29.83,North,-999,-999.0,-999.0,-999,0.00,,,0.00,weatherlink.com 1.10,2013-01-31 08:23:00,
2013-01-31 03:38:00,-999.0,-99.9,29.84,North,-999,-999.0,-999.0,-999,0.00,,,0.00,weatherlink.com 1.10,2013-01-31 08:38:00,
2013-01-31 03:54:00,-999.0,-99.9,29.84,North,-999,-999.0,-999.0,-999,0.00,,,0.00,weatherlink.com 1.10,2013-01-31 08:54:00,
2013-01-31 04:09:00,-999.0,-99.9,29.84,North,-999,-999.0,-999.0,-999,0.00,,,0.00,weatherlink.com 1.10,2013-01-31 09:09:00,
2013-01-31 04:23:00,-999.0,-99.9,29.84,North,-999,-999.0,-999.0,-999,0.00,,,0.00,weatherlink.com 1.10,2013-01-31 09:23:00,
2013-01-31 04:38:00,-999.0,-99.9,29.84,North,-999,-999.0,-999.0,-999,0.00,,,0.00,weatherlink.com 1.10,2013-01-31 09:38:00,
2013-01-31 04:54:00,-999.0,-99.9,29.85,North,-999,-999.0,-999.0,-999,0.00,,,0.00,weatherlink.com 1.10,2013-01-31 09:54:00,
2013-01-31 05:09:00,-999.0,-99.9,29.85,North,-999,-999.0,-999.0,-999,0.00,,,0.00,weatherlink.com 1.10,2013-01-31 10:09:00,
2013-01-31 05:24:00,-999.0,-99.9,29.86,North,-999,-999.0,-999.0,-999,0.00,,,0.00,weatherlink.com 1.10,2013-01-31 10:24:00,
2013-01-31 05:39:00,-999.0,-99.9,29.86,North,-999,-999.0,-999.0,-999,0.00,,,0.00,weatherlink.com 1.10,2013-01-31 10:39:00,
2013-01-31 05:54:00,-999.0,-99.9,29.86,North,-999,-999.0,-999.0,-999,0.00,,,0.00,weatherlink.com 1.10,2013-01-31 10:54:00,
2013-01-31 06:09:00,-999.0,-99.9,29.87,North,-999,-999.0,-999.0,-999,0.00,,,0.00,weatherlink.com 1.10,2013-01-31 11:09:00,
2013-01-31 06:24:00,-999.0,-99.9,29.88,North,-999,-999.0,-999.0,-999,0.00,,,0.00,weatherlink.com 1.10,2013-01-31 11:24:00,
2013-01-31 06:40:00,-999.0,-99.9,29.88,North,-999,-999.0,-999.0,-999,0.00,,,0.00,weatherlink.com 1.10,2013-01-31 11:40:00,
2013-01-31 06:54:00,-999.0,-99.9,29.89,North,-999,-999.0,-999.0,-999,0.00,,,0.00,weatherlink.com 1.10,2013-01-31 11:54:00,
2013-01-31 07:09:00,-999.0,-99.9,29.90,North,-999,-999.0,-999.0,-999,0.00,,,0.00,weatherlink.com 1.10,2013-01-31 12:09:00,
2013-01-31 07:24:00,-999.0,-99.9,29.90,North,-999,-999.0,-999.0,-999,0.00,,,0.00,weatherlink.com 1.10,2013-01-31 12:24:00,
2013-01-31 07:39:00,-999.0,-99.9,29.91,North,-999,-999.0,-999.0,-999,0.00,,,0.00,weatherlink.com 1.10,2013-01-31 12:39:00,
2013-01-31 07:54:00,-999.0,-99.9,29.92,North,-999,-999.0,-999.0,-999,0.00,,,0.00,weatherlink.com 1.10,2013-01-31 12:54:00,
2013-01-31 08:10:00,-999.0,-99.9,29.92,North,-999,-999.0,-999.0,-999,0.00,,,0.00,weatherlink.com 1.10,2013-01-31 13:10:00,
2013-01-31 08:25:00,-999.0,-99.9,29.93,North,-999,-999.0,-999.0,-999,0.00,,,0.00,weatherlink.com 1.10,2013-01-31 13:25:00,
2013-01-31 08:40:00,-999.0,-99.9,29.94,North,-999,-999.0,-999.0,-999,0.00,,,0.00,weatherlink.com 1.10,2013-01-31 13:40:00,
2013-01-31 08:55:00,-999.0,-99.9,29.95,North,-999,-999.0,-999.0,-999,0.00,,,0.00,weatherlink.com 1.10,2013-01-31 13:55:00,
2013-01-31 09:10:00,-999.0,-99.9,29.96,North,-999,-999.0,-999.0,-999,0.00,,,0.00,weatherlink.com 1.10,2013-01-31 14:10:00,
2013-01-31 09:25:00,-999.0,-99.9,29.96,North,-999,-999.0,-999.0,-999,0.00,,,0.00,weatherlink.com 1.10,2013-01-31 14:25:00,
2013-01-31 09:40:00,-999.0,-99.9,29.97,North,-999,-999.0,-999.0,-999,0.00,,,0.00,weatherlink.com 1.10,2013-01-31 14:40:00,
2013-01-31 09:55:00,-999.0,-99.9,29.98,North,-999,-999.0,-999.0,-999,0.00,,,0.00,weatherlink.com 1.10,2013-01-31 14:55:00,
2013-01-31 10:10:00,-999.0,-99.9,29.98,North,-999,-999.0,-999.0,-999,0.00,,,0.00,weatherlink.com 1.10,2013-01-31 15:10:00,
2013-01-31 10:25:00,-999.0,-99.9,29.98,North,-999,-999.0,-999.0,-999,0.00,,,0.00,weatherlink.com 1.10,2013-01-31 15:25:00,
2013-01-31 10:40:00,-999.0,-99.9,29.98,North,-999,-999.0,-999.0,-999,0.00,,,0.00,weatherlink.com 1.10,2013-01-31 15:40:00,
2013-01-31 10:55:00,26.7,24.0,29.99,North,360,6.0,9.0,90,0.00,,,0.00,weatherlink.com 1.10,2013-01-31 15:55:00,
2013-01-31 11:10:00,27.9,25.0,29.99,North,360,8.0,15.0,90,0.00,,,0.00,weatherlink.com 1.10,2013-01-31 16:10:00,
2013-01-31 11:25:00,28.8,26.0,29.99,North,360,10.0,14.0,89,0.00,,,0.00,weatherlink.com 1.10,2013-01-31 16:25:00,
2013-01-31 11:40:00,29.6,25.0,29.99,North,360,23.0,23.0,84,0.00,,,0.00,weatherlink.com 1.10,2013-01-31 16:40:00,
2013-01-31 11:56:00,30.2,24.0,30.00,North,360,9.0,24.0,76,0.00,,,0.00,weatherlink.com 1.10,2013-01-31 16:56:00,
2013-01-31 12:11:00,30.6,23.0,30.00,North,360,12.0,25.0,74,0.00,,,0.00,weatherlink.com 1.10,2013-01-31 17:11:00,
2013-01-31 12:26:00,30.5,23.0,30.01,North,360,7.0,24.0,74,0.00,,,0.00,weatherlink.com 1.10,2013-01-31 17:26:00,
2013-01-31 12:41:00,30.6,23.0,30.01,North,360,18.0,26.0,73,0.00,,,0.00,weatherlink.com 1.10,2013-01-31 17:41:00,
2013-01-31 12:56:00,31.3,24.0,29.99,North,360,14.0,25.0,74,0.00,,,0.00,weatherlink.com 1.10,2013-01-31 17:56:00,
2013-01-31 13:11:00,31.9,23.0,29.98,North,360,18.0,21.0,71,0.00,,,0.00,weatherlink.com 1.10,2013-01-31 18:11:00,
2013-01-31 13:26:00,32.0,24.0,29.98,North,360,14.0,20.0,72,0.00,,,0.00,weatherlink.com 1.10,2013-01-31 18:26:00,
2013-01-31 13:41:00,32.2,24.0,29.98,North,360,14.0,24.0,71,0.00,,,0.00,weatherlink.com 1.10,2013-01-31 18:41:00,
2013-01-31 13:56:00,32.5,24.0,29.98,North,360,10.0,23.0,70,0.00,,,0.00,weatherlink.com 1.10,2013-01-31 18:56:00,
2013-01-31 14:11:00,32.8,24.0,29.98,North,360,15.0,22.0,71,0.00,,,0.00,weatherlink.com 1.10,2013-01-31 19:11:00,
2013-01-31 14:26:00,33.8,25.0,29.98,North,360,12.0,22.0,69,0.00,,,0.00,weatherlink.com 1.10,2013-01-31 19:26:00,
2013-01-31 14:41:00,33.6,25.0,29.98,North,360,19.0,21.0,70,0.00,,,0.00,weatherlink.com 1.10,2013-01-31 19:41:00,
2013-01-31 14:56:00,34.0,24.0,29.97,North,360,11.0,21.0,68,0.00,,,0.00,weatherlink.com 1.10,2013-01-31 19:56:00,
2013-01-31 15:11:00,35.1,25.0,29.97,North,360,14.0,20.0,68,0.00,,,0.00,weatherlink.com 1.10,2013-01-31 20:11:00,
2013-01-31 15:26:00,33.9,25.0,29.97,North,360,12.0,17.0,69,0.00,,,0.00,weatherlink.com 1.10,2013-01-31 20:26:00,
2013-01-31 15:41:00,34.2,25.0,29.97,North,360,9.0,22.0,68,0.00,,,0.00,weatherlink.com 1.10,2013-01-31 20:41:00,
2013-01-31 15:56:00,34.9,25.0,29.97,North,360,16.0,18.0,68,0.00,,,0.00,weatherlink.com 1.10,2013-01-31 20:56:00,
2013-01-31 16:11:00,35.1,25.0,29.97,North,360,5.0,20.0,66,0.00,,,0.00,weatherlink.com 1.10,2013-01-31 21:11:00,
2013-01-31 16:27:00,35.0,25.0,29.96,North,360,11.0,19.0,67,0.00,,,0.00,weatherlink.com 1.10,2013-01-31 21:27:00,
2013-01-31 16:41:00,35.1,25.0,29.97,North,360,10.0,14.0,68,0.00,,,0.00,weatherlink.com 1.10,2013-01-31 21:41:00,
2013-01-31 16:56:00,35.1,26.0,29.97,North,360,7.0,16.0,69,0.00,,,0.00,weatherlink.com 1.10,2013-01-31 21:56:00,
2013-01-31 17:11:00,35.0,26.0,29.98,North,360,7.0,15.0,69,0.00,,,0.00,weatherlink.com 1.10,2013-01-31 22:11:00,
2013-01-31 17:26:00,35.0,25.0,29.97,North,360,13.0,16.0,68,0.00,,,0.00,weatherlink.com 1.10,2013-01-31 22:26:00,
2013-01-31 17:41:00,-999.0,-99.9,29.98,North,-999,-999.0,-999.0,-999,0.00,,,0.00,weatherlink.com 1.10,2013-01-31 22:41:00,
2013-01-31 17:56:00,-999.0,-99.9,29.98,North,-999,-999.0,-999.0,-999,0.00,,,0.00,weatherlink.com 1.10,2013-01-31 22:56:00,
2013-01-31 18:11:00,-999.0,-99.9,29.98,North,-999,-999.0,-999.0,-999,0.00,,,0.00,weatherlink.com 1.10,2013-01-31 23:11:00,
2013-01-31 18:27:00,-999.0,-99.9,29.98,North,-999,-999.0,-999.0,-999,0.00,,,0.00,weatherlink.com 1.10,2013-01-31 23:27:00,
2013-01-31 18:42:00,-999.0,-99.9,29.98,North,-999,-999.0,-999.0,-999,0.00,,,0.00,weatherlink.com 1.10,2013-01-31 23:42:00,
2013-01-31 18:56:00,-999.0,-99.9,29.99,North,-999,-999.0,-999.0,-999,0.00,,,0.00,weatherlink.com 1.10,2013-01-31 23:56:00,
2013-01-31 19:11:00,-999.0,-99.9,29.98,North,-999,-999.0,-999.0,-999,0.00,,,0.00,weatherlink.com 1.10,2013-02-01 00:11:00,
2013-01-31 19:27:00,-999.0,-99.9,29.98,North,-999,-999.0,-999.0,-999,0.00,,,0.00,weatherlink.com 1.10,2013-02-01 00:27:00,
2013-01-31 19:42:00,-999.0,-99.9,29.98,North,-999,-999.0,-999.0,-999,0.00,,,0.00,weatherlink.com 1.10,2013-02-01 00:42:00,
2013-01-31 19:57:00,-999.0,-99.9,29.98,North,-999,-999.0,-999.0,-999,0.00,,,0.00,weatherlink.com 1.10,2013-02-01 00:57:00,
2013-01-31 20:12:00,-999.0,-99.9,29.98,North,-999,-999.0,-999.0,-999,0.00,,,0.00,weatherlink.com 1.10,2013-02-01 01:12:00,
2013-01-31 20:27:00,-999.0,-99.9,29.98,North,-999,-999.0,-999.0,-999,0.00,,,0.00,weatherlink.com 1.10,2013-02-01 01:27:00,
2013-01-31 20:42:00,-999.0,-99.9,29.98,North,-999,-999.0,-999.0,-999,0.00,,,0.00,weatherlink.com 1.10,2013-02-01 01:42:00,
2013-01-31 20:57:00,-999.0,-99.9,29.98,North,-999,-999.0,-999.0,-999,0.00,,,0.00,weatherlink.com 1.10,2013-02-01 01:57:00,
2013-01-31 21:12:00,-999.0,-99.9,29.98,North,-999,-999.0,-999.0,-999,0.00,,,0.00,weatherlink.com 1.10,2013-02-01 02:12:00,
2013-01-31 21:27:00,-999.0,-99.9,30.02,North,-999,-999.0,-999.0,-999,0.00,,,0.00,weatherlink.com 1.10,2013-02-01 02:27:00,
2013-01-31 21:42:00,-999.0,-99.9,30.05,North,-999,-999.0,-999.0,-999,0.00,,,0.00,weatherlink.com 1.10,2013-02-01 02:42:00,
2013-01-31 21:58:00,-999.0,-99.9,30.07,North,-999,-999.0,-999.0,-999,0.00,,,0.00,weatherlink.com 1.10,2013-02-01 02:58:00,
2013-01-31 22:13:00,-999.0,-99.9,30.08,North,-999,-999.0,-999.0,-999,0.00,,,0.00,weatherlink.com 1.10,2013-02-01 03:13:00,
2013-01-31 22:27:00,-999.0,-99.9,30.09,North,-999,-999.0,-999.0,-999,0.00,,,0.00,weatherlink.com 1.10,2013-02-01 03:27:00,
2013-01-31 22:43:00,-999.0,-99.9,30.10,North,-999,-999.0,-999.0,-999,0.00,,,0.00,weatherlink.com 1.10,2013-02-01 03:43:00,
2013-01-31 22:58:00,-999.0,-99.9,30.11,North,-999,-999.0,-999.0,-999,0.00,,,0.00,weatherlink.com 1.10,2013-02-01 03:58:00,
2013-01-31 23:13:00,-999.0,-99.9,30.12,North,-999,-999.0,-999.0,-999,0.00,,,0.00,weatherlink.com 1.10,2013-02-01 04:13:00,
2013-01-31 23:28:00,-999.0,-99.9,30.13,North,-999,-999.0,-999.0,-999,0.00,,,0.00,weatherlink.com 1.10,2013-02-01 04:28:00,
2013-01-31 23:43:00,-999.0,-99.9,30.15,North,-999,-999.0,-999.0,-999,0.00,,,0.00,weatherlink.com 1.10,2013-02-01 04:43:00,
2013-01-31 23:58:00,-999.0,-99.9,30.16,North,-999,-999.0,-999.0,-999,0.00,,,0.00,weatherlink.com 1.10,2013-02-01 04:58:00,